[[{"header":{"parameterUnit":"m.s-1","parameterCategory":1,"la1":30.2991,"la2":30.254,"lo1":-89.0895,"lo2":-89.0444,"dy":0.0017,"dx":0.0017,"nx":28,"ny":28,"refTime":"2024-10-07T03:00:00:Z","depth":0,"parameterNumber":2,"parameterNumberName":"U-component_of_WINDS"},"data":[0,0,0,0,0,0,0,0,0,0,0,0,0,0,0,0,0,0,0,0,0,0,0,0,0,0,0,0,0,0,0,0,0,0,0,0,0,0,0,0,0,0,0,0,0,0,0,0,0,0,0,0,0,0,0,0,0,0,-4.1129,-4.1129,0,-4.1118,-4.1118,-4.1118,-4.107,-4.1069,-4.1068,-4.1067,-4.1056,-4.1057,-4.1058,0,0,0,0,0,0,0,0,0,0,0,0,0,-4.111,-4.1111,-4.1129,-4.1129,-4.1129,-4.1118,-4.1118,-4.1118,-4.107,-4.1069,-4.1068,-4.1066,-4.1056,-4.1057,-4.1058,0,0,0,0,0,0,0,0,0,0,0,0,0,-4.1111,-4.1111,-4.1129,-4.1104,-4.1101,-4.1118,-4.1118,-4.1118,-4.1071,-4.1069,-4.1067,-4.1066,-4.1056,-4.1057,-4.1058,-4.1099,0,0,-4.1062,-4.1062,0,0,0,0,0,0,0,0,-4.1111,-4.1111,-4.1107,-4.1105,-4.1103,-4.1094,-4.1107,-4.1111,-4.1071,-4.1082,-4.1067,-4.1065,-4.107,-4.107,-4.1072,-4.1098,-4.1098,-4.1062,-4.1062,-4.1063,-4.1063,0,0,0,0,0,0,0,-4.1111,-4.1112,-4.1124,-4.1107,-4.1105,-4.1093,-4.1092,-4.1108,-4.1086,-4.1081,-4.1078,-4.1077,-4.1069,-4.1071,-4.1071,-4.1097,-4.1062,-4.1063,-4.1063,-4.1064,-4.1158,-4.116,0,0,0,0,0,0,-4.1114,-4.1112,-4.1125,-4.1124,-4.1103,-4.1095,-4.1093,-4.1098,-4.1085,-4.1082,-4.1078,-4.1075,-4.107,-4.107,-4.1071,-4.1118,-4.1063,-4.1064,-4.1065,-4.1156,-4.1158,-4.116,0,0,0,0,0,0,-4.1114,-4.1116,-4.1125,-4.1117,-4.1117,-4.1097,-4.1103,-4.1099,-4.1101,-4.1083,-4.1079,-4.1085,-4.1068,-4.1069,-4.1092,-4.1117,-4.1064,-4.1066,-4.1154,-4.1157,-4.1159,-4.1212,0,0,0,0,0,0,-4.1114,-4.1116,-4.1131,-4.1118,-4.1118,-4.1147,-4.1105,-4.11,-4.1103,-4.1098,-4.1088,-4.1085,-4.1067,-4.1091,-4.1093,-4.1117,-4.1066,-4.1152,-4.1155,-4.1159,-4.1208,-4.1216,-4.1224,0,0,0,0,0,-4.1113,-4.1146,-4.1131,-4.1133,-4.1136,-4.1148,-4.1148,-4.1127,-4.1105,-4.112,-4.1109,-4.1085,-4.1114,-4.1094,-4.1096,-4.1121,-4.115,-4.1154,-4.1158,-4.1205,-4.1215,-4.1223,0,0,0,0,0,0,-4.1161,-4.1143,-4.1127,-4.1157,-4.1154,-4.114,-4.1158,-4.1138,-4.1142,-4.1137,-4.1111,-4.1109,-4.1137,-4.1131,-4.1109,-4.116,-4.1128,-4.1133,-4.1163,-4.1172,-4.1179,-4.118,-4.1067,0,0,0,0,0,-4.1175,-4.1187,-4.117,-4.1198,-4.1198,-4.1178,-4.1183,-4.1167,-4.1163,-4.1162,-4.1152,-4.115,-4.1159,-4.1165,-4.1172,-4.1207,-4.1205,-4.1226,-4.1234,-4.124,-4.1244,-4.1264,-4.1273,-4.1174,-4.1174,-4.1174,0,0,-4.1204,-4.1196,-4.1205,-4.1207,-4.1204,-4.1216,-4.1178,-4.1192,-4.1202,-4.1164,-4.1186,-4.1179,-4.1175,-4.1205,-4.1218,-4.1201,-4.1272,-4.1245,-4.125,-4.1251,-4.1269,-4.1279,-4.1287,-4.1177,-4.1176,-4.1176,0,0,-4.1264,-4.1259,-4.1281,-4.1279,-4.1274,-4.1261,-4.1267,-4.1256,-4.125,-4.1271,-4.1244,-4.1255,-4.127,-4.1269,-4.127,-4.1332,-4.131,-4.1335,-4.1375,-4.1394,-4.1402,-4.1409,-4.1431,-4.144,-4.1339,-4.1339,-4.1339,0,-4.1301,-4.1318,-4.1296,-4.1313,-4.1315,-4.1282,-4.1306,-4.1304,-4.1302,-4.1305,-4.1287,-4.1306,-4.1301,-4.1331,-4.1346,-4.1348,-4.1354,-4.1335,-4.1402,-4.1409,-4.1415,-4.1437,-4.1445,-4.1342,-4.1342,-4.1342,-4.1341,0,-4.1364,-4.1377,-4.1396,-4.1395,-4.14,-4.142,-4.1401,-4.1409,-4.1393,-4.1383,-4.1406,-4.1399,-4.1405,-4.1411,-4.1395,-4.1439,-4.1429,-4.1407,-4.1374,-4.1428,-4.1448,-4.1456,-4.1347,-4.1346,-4.1345,-4.1344,0,0,-4.1452,-4.144,-4.1447,-4.1447,-4.144,-4.145,-4.147,-4.1475,-4.1483,-4.1483,-4.1499,-4.1514,-4.1494,-4.1496,-4.148,-4.1497,-4.1547,-4.1473,-4.1473,-4.1488,-4.1596,-4.1613,-4.1623,-4.1533,-4.1535,-4.1536,-4.1597,0,-4.1509,-4.1541,-4.1523,-4.1558,-4.157,-4.154,-4.1557,-4.1556,-4.1547,-4.1557,-4.1547,-4.1558,-4.1531,-4.1532,-4.1547,-4.1538,-4.1569,-4.1533,-4.1549,-4.155,-4.1551,-4.1633,-4.165,-4.1707,-4.1604,-4.1606,-4.1607,0,-4.158,-4.1584,-4.162,-4.1613,-4.1617,-4.1633,-4.1637,-4.1647,-4.1645,-4.1637,-4.164,-4.1621,-4.1641,-4.1609,-4.1636,-4.1612,-4.1618,-4.1614,-4.1616,-4.1617,-4.1581,-4.1636,-4.1725,-4.1734,-4.1618,-4.1617,-4.1616,0,-4.1641,-4.1656,-4.168,-4.168,-4.1672,-4.1684,-4.1681,-4.1677,-4.1682,-4.1687,-4.169,-4.1696,-4.17,-4.1706,-4.169,-4.1668,-4.172,-4.1686,-4.1714,-4.1715,-4.1726,-4.1726,-4.1818,-4.173,-4.173,-4.173,-4.1729,0,-4.1707,-4.1731,-4.1707,-4.1722,-4.1748,-4.1727,-4.1754,-4.1748,-4.1745,-4.1759,-4.1733,-4.1747,-4.1724,-4.1736,-4.1723,-4.1749,-4.175,-4.1745,-4.1742,-4.1748,-4.1748,-4.1751,-4.1746,-4.1732,-4.1731,-4.1731,-4.1731,0,-4.1779,-4.1765,-4.1789,-4.178,-4.1778,-4.1798,-4.179,-4.1804,-4.1794,-4.1812,-4.1815,-4.18,-4.1812,-4.1797,-4.1808,-4.1799,-4.1834,-4.1824,-4.1834,-4.1832,-4.1861,-4.1859,-4.1958,-4.1971,-4.1874,-4.1875,-4.1876,0,-4.1822,-4.184,-4.1833,-4.184,-4.1839,-4.1851,-4.1857,-4.1837,-4.1844,-4.1844,-4.1858,-4.1869,-4.1876,-4.1898,-4.1888,-4.1897,-4.1888,-4.1922,-4.1889,-4.1895,-4.1889,-4.1888,-4.189,-4.1929,-4.193,-4.1931,-4.1932,0,-4.19,-4.1892,-4.1901,-4.1908,-4.1916,-4.192,-4.1922,-4.193,-4.191,-4.1919,-4.1932,-4.1938,-4.195,-4.1961,-4.1967,-4.1965,-4.1946,-4.1942,-4.1949,-4.1956,-4.1961,-4.1959,-4.1853,-4.194,-4.1939,-4.1938,-4.1938,-4.1938,-4.1959,-4.1974,-4.1972,-4.1983,-4.1983,-4.1987,-4.2,-4.1992,-4.2002,-4.201,-4.1999,-4.2015,-4.2014,-4.2021,-4.2021,-4.2034,-4.2019,-4.2029,-4.2032,-4.2035,-4.204,-4.1959,-4.2035,-4.2035,-4.2035,-4.2034,-4.2034,0,-4.2036,-4.2034,-4.2044,-4.2049,-4.2058,-4.204,-4.2042,-4.2051,-4.2066,-4.2067,-4.2075,-4.209,-4.2102,-4.2094,-4.2103,-4.2115,-4.2107,-4.2119,-4.2118,-4.2118,-4.2052,-4.2045,-4.2126,-4.2126,-4.2126,-4.2126,-4.2126,-4.2125,-4.2077,-4.2102,-4.2094,-4.2119,-4.2117,-4.2133,-4.2136,-4.2139,-4.214,-4.2159,-4.2168,-4.2163,-4.2161,-4.217,-4.218,-4.2178,-4.2183,-4.2198,-4.2192,-4.2131,-4.2122,-4.2113,-4.2107,-4.2199,-4.2199,-4.2257,-4.2257,-4.2258]},{"header":{"parameterUnit":"m.s-1","parameterCategory":1,"la1":30.2991,"la2":30.254,"lo1":-89.0895,"lo2":-89.0444,"dy":0.0017,"dx":0.0017,"nx":28,"ny":28,"refTime":"2024-10-07T03:00:00:Z","depth":0,"parameterNumber":3,"parameterNumberName":"V-component_of_WINDS"},"data":[0,0,0,0,0,0,0,0,0,0,0,0,0,0,0,0,0,0,0,0,0,0,0,0,0,0,0,0,0,0,0,0,0,0,0,0,0,0,0,0,0,0,0,0,0,0,0,0,0,0,0,0,0,0,0,0,0,0,-4.2236,-4.2236,0,-4.2233,-4.2233,-4.2233,-4.2213,-4.2213,-4.2212,-4.2212,-4.2207,-4.2207,-4.2208,0,0,0,0,0,0,0,0,0,0,0,0,0,-4.2221,-4.2221,-4.2236,-4.2235,-4.2235,-4.2233,-4.2233,-4.2233,-4.2213,-4.2213,-4.2212,-4.2211,-4.2207,-4.2207,-4.2208,0,0,0,0,0,0,0,0,0,0,0,0,0,-4.2224,-4.2221,-4.2236,-4.2225,-4.2224,-4.2233,-4.2233,-4.2233,-4.2213,-4.2213,-4.2212,-4.2211,-4.2207,-4.2207,-4.2208,-4.2226,0,0,-4.2209,-4.221,0,0,0,0,0,0,0,0,-4.2224,-4.2224,-4.2227,-4.2226,-4.2225,-4.2223,-4.2226,-4.2231,-4.2214,-4.2217,-4.2212,-4.2211,-4.2213,-4.2213,-4.2214,-4.2226,-4.2225,-4.2209,-4.221,-4.221,-4.221,0,0,0,0,0,0,0,-4.2223,-4.2224,-4.2235,-4.2227,-4.2226,-4.222,-4.222,-4.2227,-4.2219,-4.2217,-4.2216,-4.2216,-4.2212,-4.2213,-4.2214,-4.2225,-4.2209,-4.221,-4.221,-4.221,-4.2254,-4.2254,0,0,0,0,0,0,-4.2225,-4.2224,-4.2235,-4.2234,-4.2223,-4.2221,-4.2221,-4.2224,-4.2219,-4.2218,-4.2216,-4.2215,-4.2213,-4.2213,-4.2213,-4.2236,-4.221,-4.221,-4.2211,-4.2253,-4.2254,-4.2255,0,0,0,0,0,0,-4.2225,-4.2226,-4.2235,-4.2229,-4.223,-4.2222,-4.2226,-4.2225,-4.2226,-4.2219,-4.2217,-4.2219,-4.2212,-4.2213,-4.2223,-4.2235,-4.2211,-4.2211,-4.2252,-4.2253,-4.2254,-4.228,0,0,0,0,0,0,-4.2224,-4.2226,-4.2233,-4.2229,-4.223,-4.2245,-4.2227,-4.2225,-4.2227,-4.2225,-4.2221,-4.222,-4.2212,-4.2223,-4.2224,-4.2235,-4.2211,-4.2251,-4.2252,-4.2254,-4.2278,-4.2282,-4.2285,0,0,0,0,0,-4.2224,-4.2239,-4.2234,-4.2235,-4.2239,-4.2246,-4.2246,-4.2238,-4.2228,-4.2235,-4.2231,-4.222,-4.2234,-4.2224,-4.2225,-4.2237,-4.225,-4.2252,-4.2254,-4.2276,-4.2281,-4.2285,0,0,0,0,0,0,-4.2243,-4.2239,-4.2232,-4.2247,-4.2247,-4.2243,-4.2251,-4.2243,-4.2245,-4.2243,-4.2232,-4.2231,-4.2244,-4.2241,-4.2231,-4.2255,-4.224,-4.2242,-4.2257,-4.2261,-4.2265,-4.2266,-4.2212,0,0,0,0,0,-4.2249,-4.2256,-4.2251,-4.2265,-4.2266,-4.2259,-4.2261,-4.2255,-4.2254,-4.2254,-4.225,-4.225,-4.2254,-4.2257,-4.226,-4.2277,-4.2276,-4.2286,-4.2289,-4.2292,-4.2295,-4.2305,-4.231,-4.2261,-4.2261,-4.2261,0,0,-4.2262,-4.226,-4.2265,-4.2269,-4.2268,-4.2276,-4.2259,-4.2266,-4.2272,-4.2255,-4.2266,-4.2263,-4.2262,-4.2276,-4.2282,-4.2274,-4.2308,-4.2295,-4.2297,-4.2298,-4.2307,-4.2312,-4.2316,-4.2262,-4.2262,-4.2262,0,0,-4.2289,-4.2287,-4.23,-4.23,-4.23,-4.2296,-4.2299,-4.2296,-4.2294,-4.2305,-4.2293,-4.2298,-4.2306,-4.2306,-4.2307,-4.2336,-4.2326,-4.2337,-4.2356,-4.2366,-4.237,-4.2374,-4.2386,-4.239,-4.2339,-4.2339,-4.2339,0,-4.2304,-4.2315,-4.2307,-4.2317,-4.2319,-4.2305,-4.2318,-4.2318,-4.2319,-4.2321,-4.2312,-4.2323,-4.232,-4.2336,-4.2343,-4.2343,-4.2347,-4.2338,-4.237,-4.2374,-4.2377,-4.2388,-4.2393,-4.2341,-4.234,-4.234,-4.234,0,-4.2335,-4.2343,-4.2353,-4.2356,-4.236,-4.237,-4.2364,-4.2368,-4.2361,-4.2358,-4.237,-4.2367,-4.237,-4.2373,-4.2366,-4.2388,-4.2383,-4.2373,-4.2357,-4.2383,-4.2394,-4.2398,-4.2343,-4.2342,-4.2342,-4.2341,0,0,-4.2374,-4.2373,-4.2377,-4.238,-4.2379,-4.2385,-4.2396,-4.24,-4.2405,-4.2406,-4.2415,-4.2423,-4.2414,-4.2415,-4.2408,-4.2416,-4.2442,-4.2405,-4.2405,-4.2413,-4.2468,-4.2477,-4.2482,-4.2435,-4.2436,-4.2436,-4.2468,0,-4.2401,-4.2421,-4.2414,-4.2434,-4.2442,-4.243,-4.2439,-4.244,-4.2437,-4.2443,-4.2439,-4.2445,-4.2432,-4.2433,-4.2441,-4.2437,-4.2453,-4.2434,-4.2444,-4.2445,-4.2447,-4.2487,-4.2497,-4.2527,-4.2472,-4.2473,-4.2473,0,-4.2436,-4.2441,-4.2462,-4.2462,-4.2465,-4.2474,-4.2479,-4.2485,-4.2486,-4.2483,-4.2485,-4.2477,-4.2487,-4.2471,-4.2486,-4.2474,-4.2477,-4.2476,-4.2477,-4.2479,-4.2462,-4.2492,-4.2536,-4.2542,-4.2479,-4.2479,-4.2478,0,-4.2465,-4.2476,-4.2491,-4.2493,-4.2493,-4.25,-4.25,-4.25,-4.2504,-4.2508,-4.251,-4.2515,-4.2517,-4.2521,-4.2514,-4.2503,-4.253,-4.2513,-4.2529,-4.2529,-4.2536,-4.2536,-4.2584,-4.2536,-4.2536,-4.2536,-4.2536,0,-4.2497,-4.2511,-4.2504,-4.2513,-4.2529,-4.2521,-4.2536,-4.2534,-4.2535,-4.2544,-4.2532,-4.254,-4.253,-4.2537,-4.2531,-4.2545,-4.2546,-4.2545,-4.2543,-4.2547,-4.2547,-4.255,-4.2548,-4.2537,-4.2537,-4.2536,-4.2536,0,-4.2532,-4.2528,-4.2544,-4.2543,-4.2544,-4.2555,-4.2555,-4.2563,-4.256,-4.2571,-4.2573,-4.2567,-4.2575,-4.2569,-4.2575,-4.2572,-4.2591,-4.2586,-4.2592,-4.2591,-4.2608,-4.2607,-4.266,-4.2668,-4.2613,-4.2614,-4.2614,0,-4.2554,-4.2565,-4.2567,-4.2572,-4.2574,-4.2583,-4.2587,-4.258,-4.2585,-4.2588,-4.2596,-4.2603,-4.2609,-4.2623,-4.2619,-4.2625,-4.2621,-4.2639,-4.2621,-4.2625,-4.2623,-4.2623,-4.2625,-4.2643,-4.2643,-4.2644,-4.2644,0,-4.2594,-4.2592,-4.26,-4.2608,-4.2614,-4.2619,-4.2623,-4.2628,-4.262,-4.2627,-4.2636,-4.264,-4.2649,-4.2657,-4.2662,-4.2661,-4.2652,-4.265,-4.2654,-4.2659,-4.2662,-4.2663,-4.2604,-4.2649,-4.2648,-4.2648,-4.2648,-4.2648,-4.2625,-4.2635,-4.2638,-4.2647,-4.265,-4.2655,-4.2664,-4.2662,-4.267,-4.2677,-4.2672,-4.2683,-4.2684,-4.269,-4.2691,-4.27,-4.2692,-4.2698,-4.27,-4.2702,-4.2705,-4.266,-4.27,-4.27,-4.27,-4.27,-4.27,0,-4.2666,-4.2668,-4.2677,-4.2684,-4.2692,-4.2683,-4.2687,-4.2694,-4.2705,-4.2708,-4.2714,-4.2725,-4.2733,-4.2731,-4.2738,-4.2745,-4.2741,-4.2747,-4.2748,-4.2748,-4.271,-4.2707,-4.2751,-4.2751,-4.2751,-4.2751,-4.2751,-4.2751,-4.2688,-4.2705,-4.2704,-4.2722,-4.2724,-4.2736,-4.274,-4.2744,-4.2747,-4.276,-4.2767,-4.2766,-4.2767,-4.2774,-4.2781,-4.278,-4.2784,-4.2792,-4.279,-4.2755,-4.275,-4.2746,-4.2743,-4.2793,-4.2793,-4.2827,-4.2827,-4.2828]}]]